CST,Max TemperatureF,Mean TemperatureF,Min TemperatureF,Max Dew PointF,MeanDew PointF,Min DewpointF,Max Humidity, Mean Humidity, Min Humidity, Max Sea Level PressureIn, Mean Sea Level PressureIn, Min Sea Level PressureIn, Max VisibilityMiles, Mean VisibilityMiles, Min VisibilityMiles, Max Wind SpeedMPH, Mean Wind SpeedMPH, Max Gust SpeedMPH,PrecipitationIn, CloudCover, Events, WindDirDegrees
2012-1-1,30,26,23,28,24,18,100,90,74,29.83,29.64,29.55,7,2,0,24,11,36,0.00,8,Snow,308
2012-1-2,15,8,1,9,5,-2,85,75,62,30.30,30.13,29.92,10,8,2,25,16,33,0.00,5,Snow,316
2012-1-3,15,6,-4,5,-2,-8,85,74,49,30.29,30.12,29.87,10,10,10,17,7,17,0.00,1,,213
2012-1-4,26,17,8,19,13,5,93,81,69,29.93,29.85,29.78,10,10,10,13,6,18,0.00,2,,283
2012-1-5,39,26,14,28,22,12,100,82,65,29.90,29.70,29.50,10,10,7,15,3,20,0.08,1,,232
2012-1-6,41,36,30,30,28,27,86,72,57,29.65,29.57,29.49,10,10,10,15,10,20,0.00,0,,262
2012-1-7,32,28,23,27,20,18,86,73,64,30.13,29.91,29.65,10,10,10,18,11,26,0.00,7,,303
2012-1-8,33,24,15,25,19,12,100,83,56,30.21,30.17,30.13,10,10,5,12,5,,0.00,1,,244
2012-1-9,39,32,26,27,25,23,93,79,60,30.04,29.83,29.72,10,10,10,22,13,28,0.00,2,,247
2012-1-10,42,28,14,30,24,12,100,83,61,29.93,29.82,29.69,10,9,2,13,3,,0.00,0,,207
2012-1-11,41,32,24,32,28,23,100,85,65,29.64,29.57,29.52,10,9,4,17,2,22,0.00,0,,288
2012-1-12,32,23,14,28,16,10,93,85,74,29.54,29.51,29.46,10,5,1,25,17,33,0.00,8,Snow,351
2012-1-13,15,12,10,12,8,3,86,75,67,29.90,29.73,29.53,10,9,2,25,15,34,0.00,8,Snow,347
2012-1-14,12,9,6,5,2,1,79,73,67,30.06,29.99,29.93,10,10,5,8,4,,0.00,8,Snow,60
2012-1-15,24,17,10,19,14,5,93,85,79,30.13,30.06,29.90,10,9,4,21,8,25,0.00,6,,167
2012-1-16,32,28,23,27,23,21,93,87,80,29.82,29.73,29.67,10,6,3,15,8,16,0.02,7,,76
2012-1-17,26,17,8,19,11,1,86,76,67,30.07,29.86,29.74,10,8,1,22,13,30,0.00,7,Snow,348
2012-1-18,15,5,-5,3,-3,-9,92,73,53,30.09,29.96,29.69,10,10,10,16,7,21,0.00,1,,204
2012-1-19,15,2,-11,12,-14,-20,86,65,42,30.01,29.83,29.52,10,8,0,24,15,39,0.00,2,Snow,288
2012-1-20,3,-6,-14,-2,-12,-20,84,70,43,30.08,30.06,30.03,10,9,2,6,2,,0.00,3,Snow,278
2012-1-21,17,4,-9,1,-5,-15,85,70,49,30.15,30.10,30.03,10,10,10,10,4,,0.00,1,,174
2012-1-22,24,18,12,25,18,7,100,92,79,29.96,29.77,29.62,10,6,1,21,13,26,0.00,8,,151
2012-1-23,30,26,21,28,25,18,100,95,86,29.67,29.42,29.27,10,5,0,21,8,28,0.01,8,Fog-Snow,321
2012-1-24,24,15,6,19,15,7,100,85,69,30.22,30.02,29.69,10,9,2,21,13,29,0.00,5,Snow,289
2012-1-25,28,16,5,25,16,1,100,90,80,30.27,30.15,29.98,10,5,1,10,2,,0.03,6,Snow,173
2012-1-26,30,26,21,28,26,21,100,97,86,29.92,29.72,29.58,4,2,0,14,9,18,0.00,7,Fog,206
2012-1-27,32,23,14,27,19,12,100,76,51,29.77,29.71,29.60,10,9,1,20,10,22,0.02,4,Snow,254
2012-1-28,28,20,12,27,15,10,93,81,68,29.86,29.75,29.66,10,9,5,25,14,33,0.00,7,Snow,280
2012-1-29,19,14,8,10,6,1,92,71,49,30.03,29.91,29.84,10,10,10,16,9,20,0.00,3,Snow,279
2012-1-30,26,14,1,19,11,-2,93,83,74,30.04,29.84,29.70,10,8,0,15,6,20,0.00,5,Snow,138
2012-1-31,39,27,15,30,25,12,93,83,70,29.70,29.62,29.56,10,7,3,15,5,22,0.04,1,,217